Weather History for Mitchell, SD

Change the Weather History Date:

Friday, March 8, 2013

  Actual Average Record
Temperature  
Mean Temperature 33 °F 31 °F  
Max Temperature 40 °F 41 °F 75 °F (1900)
Min Temperature 25 °F 21 °F -16 °F (1995)
Degree Days  
Heating Degree Days 32 34  
Month to date heating degree days 314 282  
Since 1 July heating degree days 5779 5804  
Cooling Degree Days 0 0  
Month to date cooling degree days 0 0  
Year to date cooling degree days 0 0  
Moisture  
Dew Point 30 °F    
Average Humidity 86    
Maximum Humidity 93    
Minimum Humidity 76    
Precipitation  
Precipitation 0.03 in 0.03 in 0.77 in (2000)
Month to date precipitation 0.04 0.20  
Year to date precipitation 1.61 0.76  
Snow  
Snow 0.00 in - 5.10 in (2003)
Month to date snowfall 0.2  
Since 1 July snowfall 28.1  
Snow Depth 3.00 in    
Sea Level Pressure  
Sea Level Pressure 30.10 in    
Wind  
Wind Speed 8 mph (East)    
Max Wind Speed 15 mph    
Max Gust Speed 20 mph    
Visibility 6 miles    
Events Rain    
T = Trace of Precipitation, MM = Missing Value Source: NWS Daily Summary

Daily Weather History Graph

Daily Weather History Graph

Search for Another Location

Airport:

Trip Planner

Search our weather history database for the weather conditions in past years. The results will help you decide how hot, cold, wet, or windy it might be!

Date:

Astronomy

Mar. 08, 2013 Rise Set
Actual Time 6:56 AM CST 6:30 PM CST
Civil Twilight 6:27 AM CST 6:58 PM CST
Nautical Twilight 5:54 AM CST 7:32 PM CST
Astronomical Twilight 5:20 AM CST 8:05 PM CST
Moon 4:47 AM CST (3/8) 3:22 PM CST (3/8)
Length of Visible Light 12h 31m
Length of Day
11h 33m
Waning Crescent, 11% of the Moon is Illuminated
Mar 8
Waning Crescent
Mar 11
New
Mar 19
First Quarter
Mar 27
Full
Apr 2
Last Quarter

Hourly Weather History & Observations

Time (CST) Temp. Windchill Dew Point Humidity Pressure Visibility Wind Dir Wind Speed Gust Speed Precip Events Conditions
12:53 AM 30.9 °F 23.5 °F 28.0 °F 89% 30.18 in 8.0 mi SE 8.1 mph - N/A   Clear
1:53 AM 30.9 °F 23.5 °F 28.0 °F 89% 30.19 in 8.0 mi SE 8.1 mph - N/A   Clear
2:53 AM 30.9 °F 27.5 °F 28.0 °F 89% 30.19 in 8.0 mi SSE 3.5 mph - N/A   Clear
3:53 AM 28.9 °F 25.2 °F 26.1 °F 89% 30.19 in 7.0 mi NE 3.5 mph - N/A   Clear
4:53 AM 26.1 °F 19.4 °F 24.1 °F 92% 30.21 in 5.0 mi North 5.8 mph - N/A   Clear
5:53 AM 26.1 °F 20.5 °F 24.1 °F 92% 30.21 in 6.0 mi ESE 4.6 mph - N/A   Clear
6:53 AM 26.1 °F 19.4 °F 23.0 °F 88% 30.20 in 6.0 mi ENE 5.8 mph - N/A   Clear
7:53 AM 27.0 °F 20.5 °F 25.0 °F 92% 30.21 in 5.0 mi East 5.8 mph - N/A   Clear
8:53 AM 30.0 °F 23.2 °F 26.1 °F 85% 30.19 in 6.0 mi East 6.9 mph - N/A   Clear
9:53 AM 32.0 °F 23.6 °F 27.0 °F 82% 30.19 in 8.0 mi SE 10.4 mph - N/A   Clear
10:53 AM 34.0 °F 26.0 °F 28.0 °F 79% 30.17 in 9.0 mi SE 10.4 mph - N/A   Clear
11:53 AM 36.0 °F 32.1 °F 30.0 °F 79% 30.17 in 8.0 mi East 4.6 mph - N/A   Clear
12:53 PM 37.9 °F 32.1 °F 30.9 °F 76% 30.14 in 9.0 mi East 8.1 mph - N/A   Clear
1:53 PM 37.9 °F 31.5 °F 30.9 °F 76% 30.11 in 8.0 mi East 9.2 mph - N/A   Clear
2:53 PM 39.0 °F 32.8 °F 32.0 °F 76% 30.08 in 8.0 mi ENE 9.2 mph - N/A   Partly Cloudy
3:53 PM 39.0 °F 32.8 °F 33.1 °F 79% 30.06 in 8.0 mi East 9.2 mph - 0.00 in Rain Light Rain
4:53 PM 37.9 °F 30.9 °F 33.1 °F 83% 30.04 in 6.0 mi East 10.4 mph - 0.00 in   Haze
5:53 PM 37.0 °F 29.3 °F 33.1 °F 86% 30.01 in 5.0 mi East 11.5 mph - N/A   Overcast
6:53 PM 37.0 °F 29.3 °F 33.1 °F 86% 29.99 in 6.0 mi East 11.5 mph - N/A   Scattered Clouds
7:53 PM 37.0 °F 30.4 °F 33.1 °F 86% 30.00 in 5.0 mi East 9.2 mph - N/A   Mostly Cloudy
8:53 PM 36.0 °F 29.0 °F 33.1 °F 89% 29.99 in 4.0 mi East 9.2 mph - 0.00 in Rain Light Rain
9:53 PM 36.0 °F 29.0 °F 34.0 °F 93% 29.97 in 4.0 mi ESE 9.2 mph - 0.00 in   Overcast
10:53 PM 36.0 °F 29.6 °F 34.0 °F 93% 29.93 in 2.5 mi East 8.1 mph - 0.00 in Rain Light Rain
11:17 PM 35.6 °F 28.6 °F 33.8 °F 93% 29.88 in 2.0 mi East 9.2 mph - 0.01 in Rain Light Rain
11:53 PM 36.0 °F 32.1 °F 34.0 °F 93% 29.91 in 3.0 mi ESE 4.6 mph - 0.03 in Rain Light Rain